Location: Sevilla
(37.3933°N, 5.9839°W)
Time: 05:00:04
(UTC+02:00)

Tiros 1 despin weight - Pass Details

Date: 26 June 2024
Orbit: 576 x 620 km, 48.2° (Epoch: 22 July)

Event Time Altitude Azimuth Distance (km) Brightness Sun altitude
Rises 13:53:00 0° 262° (W) 2,876 ? 74.2°
Reaches altitude 10° 13:55:28 10° 272° (W) 1,977 ? 74.4°
Maximum altitude 13:59:38 35° 338° (NNW) 1,009 ? 74.8°
Drops below altitude 10° 14:03:51 10° 45° (NE) 1,989 ? 75.1°
Sets 14:06:20 0° 54° (NE) 2,896 ? 75.3°
